Home > Weather > Guimarães > Past weeks

Flag for Portugal Past Weather in Guimarães, Portugal — Yesterday and Last 2 Weeks

Now
66 °F

Mild.


Feels Like: 66 °F
Forecast: 65 / 83 °F
Wind: 2 mph from Southwest

Location: Porto / Pedras Rubras

Current Time: Jul 29, 2016 at 3:20:08 AM

Latest Report: Jul 29, 2016 at 1:00 AM


Visibility: N/A

Pressure: 29.96 "Hg

Humidity: 74%

Dew Point: 58 °F

Location of GuimarãesLocation

Past Weather in Guimarães — Graph

°F

Guimarães Temperature Yesterday

Maximum temperature yesterday: 83 °F (at 4:00 PM)
Minimum temperature yesterday: 64 °F (at 6:00 AM)
Average temperature yesterday: 71 °F

High & Low Weather Summary for the Past Weeks

 TemperatureHumidityPressure
High94 °F (Jul 25, 12:00 PM)94% (Jul 18, 7:00 AM)30.18 "Hg (Jul 18, 7:00 AM)
Low59 °F (Jul 27, 7:00 AM)14% (Jul 15, 3:00 PM)29.94 "Hg (Jul 18, 5:00 AM)
Average72 °F60%30.04 "Hg
* Reported Jul 14 1:00 AM — Jul 29 1:00 AM, Guimarães, Weather by CustomWeather, © 2016

Note: Actual official high and low records may vary slightly from our data, if they occured in-between our weather recording intervals... More about our weather records

Advertising

Guimarães Weather History for the Previous 24 Hours

Scroll right to see more
 ConditionsComfort  
Time TempWeatherWind HumidityBarometerVisibility
1:00 AM
Fri, Jul 29
66 °FMild.2 mph74%29.96 "HgN/A
12:00 AM66 °FMild.2 mph72%29.97 "HgN/A
10:00 PM
Thu, Jul 28
69 °FMild.2 mph65%29.97 "HgN/A
7:00 PM81 °FWarm.1 mph49%29.96 "HgN/A
4:00 PM83 °FWarm.3 mph40%29.98 "HgN/A
2:00 PM81 °FWarm.2 mph40%30.00 "HgN/A
1:00 PM77 °FWarm.2 mph49%30.01 "HgN/A
12:00 PM74 °FMild.3 mph58%30.02 "HgN/A
11:00 AM72 °FMild.5 mph61%30.01 "HgN/A
10:00 AM72 °FMild.3 mph61%30.00 "HgN/A
9:00 AM73 °FMild.No wind62%29.99 "HgN/A
8:00 AM70 °FMild.No wind66%29.99 "HgN/A
7:00 AM64 °FMild.1 mph78%29.99 "HgN/A
6:00 AM64 °FMild.No wind77%29.99 "HgN/A
5:00 AM64 °FMild.No wind76%29.99 "HgN/A
4:00 AM65 °FMild.1 mph74%29.99 "HgN/A
3:00 AM66 °FMild.2 mph72%30.00 "HgN/A
Weather by CustomWeather, © 2016

See weather overviewHow to use our weather pages